Regional Weather Roundup
Issued by NWS

Home | Current Version | Previous Version | Graphics & Text | Print | Product List | Glossary On
Versions: 1 2 3 4 5 6 7 8 9 10 11 12 13 14 15 16 17 18 19 20 21 22 23 24 25 26 27 28 29 30 31 32 33 34 35 36 37 38 39 40 41 42 43 44 45 46 47 48 49 50
000
ASUS45 KABQ 160810
RWRNM
WEATHER ROUNDUP FOR NEW MEXICO
NATIONAL WEATHER SERVICE ALBUQUERQUE NM
200 AM MDT TUE SEP 16 2014

NOTE: "FAIR" MEANS FEW OR NO CLOUDS BELOW 12,000 FEET AGL WITH NO
       SIGNIFICANT WEATHER OR OBSTRUCTIONS TO VISION.

      THIS PRODUCT IS RELEASED AS TWO VERSIONS.  ONE VERSION NEAR
      THE TOP OF THE HOUR CONTAINING PRELIMINARY DATA FROM ALBUQUERQUE
      AND OTHER STATIONS.  A FINAL VERSION WITH ADDITIONAL DATA IS
      ISSUED ABOUT 10 MINUTES AFTER THE HOUR.

NMZ501-503-504-510>518-160900-
NORTHWEST PLATEAU/NORTHCENTRAL MOUNTAINS

CITY           SKY/WX    TMP DP  RH WIND       PRES   REMARKS
FARMINGTON     CLEAR     66  47  50 E7        30.28S
LOS ALAMOS     CLOUDY    58  53  81 S6        30.44R
SANTA FE       MOCLDY    59  53  80 SE7       30.38S
ANGEL FIRE     FAIR      39  37  90 CALM      30.50F

$$
NMZ402-403-502-505>509-160900-
WESTCENTRAL MOUNTAINS/SOUTHWEST MOUNTAINS

CITY           SKY/WX    TMP DP  RH WIND       PRES   REMARKS
GALLUP         LGT RAIN  61  54  77 E12       30.34R
GRANTS         CLOUDY    57  52  82 CALM      30.40S
SILVER CITY    CLOUDY    64  61  88 SE7       30.30R

$$
NMZ407-409-411-412-160900-
SOUTHERN DESERTS

CITY           SKY/WX    TMP DP  RH WIND       PRES   REMARKS
LORDSBURG      PTSUNNY   66  59  77 SE12G17   30.20R
DEMING         LGT RAIN  67  65  93 CALM      30.22S
LAS CRUCES     LGT RAIN  67  65  93 SE3       30.25S
HOLLOMAN AFB   MOCLDY    71  62  74 SW2       30.21S
ALAMOGORDO     CLOUDY    68  63  83 CALM      30.23S
T OR C         LGT RAIN  67  63  87 NE7       30.24S

$$
NMZ519>523-160900-
CENTRAL VALLEYS/CENTRAL HIGHLANDS

CITY           SKY/WX    TMP DP  RH WIND       PRES   REMARKS
ALBUQUERQUE    CLOUDY    67  56  67 E17       30.31F
DOUBLE EAGLE   CLOUDY    62  58  85 NW3       30.35R
MORIARTY ARPT  CLOUDY    59  55  87 CALM      30.40S
CLINES CORNERS CLOUDY    56  53  90 E6        30.42S
BELEN          FAIR      63  59  87 SW6       30.29S
SOCORRO        LGT RAIN  64  62  94 CALM      30.28S

$$
NMZ524>526-539-540-160900-
SOUTHCENTRAL MOUNTAINS

CITY           SKY/WX    TMP DP  RH WIND       PRES   REMARKS
RUIDOSO        CLOUDY    57  57 100 SE7       30.41F

$$
NMZ527>531-160900-
NORTHEAST HIGHLANDS/NORTHEAST PLAINS

CITY           SKY/WX    TMP DP  RH WIND       PRES   REMARKS
LAS VEGAS      MOCLDY    53  52  96 S10       30.42S
RATON          CLOUDY    55  51  86 SW3       30.37F
CLAYTON        CLOUDY    56  53  90 S6        30.32F

$$
NMZ532>537-160900-
EASTCENTRAL PLAINS

CITY           SKY/WX    TMP DP  RH WIND       PRES   REMARKS
TUCUMCARI      CLOUDY    62  55  77 NE6       30.30S
CANNON AFB     MOCLDY    61  57  88 NE9       30.30S FOG
CLOVIS AIRPORT   N/A     61  57  88 NE10      30.32S

$$
NMZ028-029-538-160900-
SOUTHEAST PLAINS

CITY           SKY/WX    TMP DP  RH WIND       PRES   REMARKS
ROSWELL        CLOUDY    68  64  87 CALM      30.24S
CARLSBAD       CLOUDY    69  69 100 CALM      30.21S
HOBBS          CLOUDY    66  66 100 CALM      30.25S


$$



USA.gov is the U.S. government's official web portal to all federal, state and local government web resources and services.